Regional Weather Roundup
Issued by NWS

Home | Current Version | Previous Version | Text Only | Print | Product List | Glossary On
Versions: 1 2 3 4 5 6 7 8 9 10 11 12 13 14 15 16 17 18 19 20 21 22 23 24 25 26 27 28 29 30 31 32 33 34 35 36 37 38 39 40 41 42 43 44 45 46 47 48 49 50
000
ASUS44 KMEG 070510
RWRTN
TENNESSEE HOURLY STATE WEATHER ROUNDUP
NATIONAL WEATHER SERVICE MEMPHIS TN
1200 AM CDT TUE JUL 07 2015

TNZ002-004-019-021-049-052-054-088>092-070600-
WEST TENNESSEE

CITY           SKY/WX    TMP DP  RH WIND       PRES   REMARKS
MEMPHIS INTL   MOCLDY    79  73  82 S12       30.04S
NWS MEMPHIS      N/A     77 N/A N/A MISG        N/A
JACKSON        MOCLDY    77  72  84 S8        30.05R
DYERSBURG        N/A    N/A N/A N/A MISG        N/A
PARIS          CLEAR     73  72  94 S6        30.05S
LEXINGTON      CLEAR     75  72  88 S5        30.06S
$$

TNZ008-025-027-028-033-062-065-066-070600-
NORTH MIDDLE TENNESSEE

CITY           SKY/WX    TMP DP  RH WIND       PRES   REMARKS
NASHVILLE      CLEAR     75  73  93 S5        30.07F
CLARKSVILLE    CLEAR     77  73  87 SW8       30.04S
SMYRNA         CLEAR     75  72  91 CALM      30.08F
COOKEVILLE     CLEAR     72  72 100 CALM      30.11S
CROSSVILLE     CLEAR     70  66  87 SW5       30.17R
$$

TNZ061-075-076-078-094-096-097-070600-
SOUTH MIDDLE TENNESSEE

CITY           SKY/WX    TMP DP  RH WIND       PRES   REMARKS
FAYETTEVILLE   CLEAR     73  72  94 SW5       30.12F
TULLAHOMA      CLEAR     72  70  94 S3        30.13F
WINCHESTER     CLEAR     72  70  94 SE3       30.13S
MCMINNVILLE    CLEAR     73  73 100 CALM      30.12S
COLUMBIA       CLEAR     75  75 100 SW7       30.07S
SHELBYVILLE    CLEAR     73  72  94 S5          N/A
$$

TNZ017-018-042-046-047-070600-
NORTHEAST TENNESSEE

CITY           SKY/WX    TMP DP  RH WIND       PRES   REMARKS
TRI CITIES     CLEAR     67  66  97 CALM      30.15R FOG
ELIZABETHTON   CLEAR     63  63 100 CALM      30.17R FOG
$$

TNZ012-013-036-069-073-074-070600-
CENTRAL EAST TENNESSEE

CITY           SKY/WX    TMP DP  RH WIND       PRES   REMARKS
KNOXVILLE      MOCLDY    74  69  85 SW7       30.12R
OAK RIDGE      CLEAR     74  70  87 CALM      30.13R
GATLINBURG     CLEAR     70  64  83 CALM      30.12S
MORRISTOWN     CLEAR     70  68  94 CALM      30.15R
$$

TNZ083-085-099-070600-
SOUTHEAST TENNESSEE

CITY           SKY/WX    TMP DP  RH WIND       PRES   REMARKS
CHATTANOOGA    CLEAR     75  70  84 SW3       30.12S
$$

SKY/WX REPORTED AS FAIR MEANS FEW OR NO CLOUDS BELOW
12 THOUSAND FEET.



USA.gov is the U.S. government's official web portal to all federal, state and local government web resources and services.